SWR493Z EDDH-LSZH

Flight info

Callsign SWR493Z
Flight time N/A
Altitude 35000
Route IDEKO7G IDEKO N850 ROBEG DCT SWALM/N0437F340 DCT OMOGI/N0440F350 T721 LAMGO/N0385F230 T721 RILAX
Aircraft A321/M-SDE3FGHIRWY/LB1

Departure

Time N/A
Airport Hamburg Helmut Schmidt Airport (EDDH)

Arrival

Time 2026-04-26 13:22
Airport Zürich Airport (LSZH)
Time Latitude Longitude Altitude Speed Heading
2026-04-26 12:55 49.65071 8.98794 35256 ft 435 kts 191°
2026-04-26 12:56 49.62082 8.98096 35238 ft 434 kts 192°
2026-04-26 12:56 49.56134 8.96438 35247 ft 434 kts 193°
2026-04-26 12:57 49.50195 8.94698 35251 ft 434 kts 193°
2026-04-26 12:57 49.44248 8.93025 35256 ft 435 kts 193°
2026-04-26 12:58 49.35307 8.90616 35183 ft 436 kts 193°
2026-04-26 12:58 49.32321 8.89806 34935 ft 435 kts 193°
2026-04-26 12:58 49.29343 8.88997 34692 ft 435 kts 193°
2026-04-26 12:59 49.26366 8.88190 34450 ft 435 kts 193°
2026-04-26 12:59 49.23389 8.87383 34199 ft 435 kts 193°
2026-04-26 12:59 49.20413 8.86575 33922 ft 435 kts 193°
2026-04-26 12:59 49.17429 8.85766 33633 ft 435 kts 193°
2026-04-26 13:00 49.14453 8.84960 33351 ft 434 kts 193°
2026-04-26 13:00 49.11493 8.84156 32812 ft 430 kts 193°
2026-04-26 13:00 49.08556 8.83356 32245 ft 426 kts 193°
2026-04-26 13:00 49.05652 8.82563 31695 ft 422 kts 193°
2026-04-26 13:01 49.02774 8.81780 31154 ft 418 kts 193°
2026-04-26 13:01 48.99925 8.81006 30611 ft 414 kts 193°
2026-04-26 13:01 48.97103 8.80240 30050 ft 410 kts 193°
2026-04-26 13:01 48.94310 8.79482 29515 ft 404 kts 193°
2026-04-26 13:02 48.91557 8.78738 28997 ft 398 kts 193°
2026-04-26 13:02 48.88849 8.78010 28505 ft 392 kts 193°
2026-04-26 13:02 48.86212 8.77301 28011 ft 386 kts 193°
2026-04-26 13:02 48.83556 8.76586 27517 ft 380 kts 193°
2026-04-26 13:03 48.81013 8.75903 27065 ft 373 kts 193°
2026-04-26 13:03 48.78472 8.75222 26607 ft 367 kts 193°
2026-04-26 13:03 48.75968 8.74550 26169 ft 364 kts 193°
2026-04-26 13:03 48.73483 8.73884 25725 ft 362 kts 193°
2026-04-26 13:04 48.71010 8.73219 25311 ft 360 kts 193°
2026-04-26 13:04 48.68546 8.72559 24894 ft 358 kts 193°
2026-04-26 13:04 48.66097 8.71906 24470 ft 356 kts 193°
2026-04-26 13:04 48.63666 8.71258 24060 ft 354 kts 193°
2026-04-26 13:05 48.62059 8.70831 23780 ft 353 kts 193°
2026-04-26 13:05 48.59645 8.70192 23324 ft 351 kts 193°
2026-04-26 13:05 48.57248 8.69555 22911 ft 349 kts 193°
2026-04-26 13:05 48.54862 8.68920 22503 ft 347 kts 193°
2026-04-26 13:06 48.52486 8.68290 22093 ft 345 kts 193°
2026-04-26 13:06 48.50124 8.67664 21682 ft 344 kts 193°
2026-04-26 13:06 48.47774 8.67041 21261 ft 342 kts 193°
2026-04-26 13:06 48.45438 8.66423 20842 ft 340 kts 193°
2026-04-26 13:07 48.43114 8.65808 20429 ft 338 kts 193°
2026-04-26 13:07 48.40803 8.65201 20005 ft 336 kts 193°
2026-04-26 13:07 48.38501 8.64597 19589 ft 335 kts 193°
2026-04-26 13:07 48.36214 8.63968 19156 ft 333 kts 194°
2026-04-26 13:08 48.33953 8.63293 18761 ft 331 kts 194°
2026-04-26 13:08 48.31703 8.62598 18326 ft 329 kts 195°
2026-04-26 13:08 48.29464 8.61903 17893 ft 328 kts 195°
2026-04-26 13:08 48.27236 8.61214 17520 ft 325 kts 194°
2026-04-26 13:09 48.25022 8.60538 17446 ft 325 kts 194°
2026-04-26 13:09 48.22792 8.59863 17351 ft 334 kts 194°
2026-04-26 13:09 48.20467 8.59157 17098 ft 345 kts 194°
2026-04-26 13:09 48.18102 8.58441 16836 ft 347 kts 194°
2026-04-26 13:10 48.15738 8.57728 16525 ft 346 kts 194°
2026-04-26 13:10 48.13384 8.57022 16197 ft 345 kts 193°
2026-04-26 13:10 48.11036 8.56322 15861 ft 343 kts 193°
2026-04-26 13:10 48.08695 8.55627 15541 ft 342 kts 193°
2026-04-26 13:11 48.06365 8.54937 15220 ft 341 kts 193°
2026-04-26 13:11 48.04044 8.54252 14898 ft 339 kts 193°
2026-04-26 13:11 48.01733 8.53569 14592 ft 338 kts 193°
2026-04-26 13:11 47.99464 8.52896 14284 ft 336 kts 193°
2026-04-26 13:12 47.97117 8.52478 13970 ft 336 kts 182°
2026-04-26 13:12 47.94791 8.52723 13619 ft 336 kts 172°
2026-04-26 13:12 47.92560 8.53592 13289 ft 336 kts 161°
2026-04-26 13:12 47.90448 8.55079 12940 ft 336 kts 150°
2026-04-26 13:13 47.88485 8.56971 12602 ft 336 kts 148°
2026-04-26 13:13 47.86534 8.58857 12257 ft 333 kts 148°
2026-04-26 13:13 47.84592 8.60723 11939 ft 331 kts 148°
2026-04-26 13:13 47.82669 8.62565 11614 ft 327 kts 148°
2026-04-26 13:14 47.80758 8.64395 11299 ft 325 kts 148°
2026-04-26 13:14 47.78862 8.66218 11198 ft 323 kts 147°
2026-04-26 13:14 47.76889 8.67794 11204 ft 322 kts 163°
2026-04-26 13:14 47.74698 8.68232 10928 ft 316 kts 185°
2026-04-26 13:15 47.72619 8.67345 10547 ft 308 kts 211°
2026-04-26 13:15 47.71070 8.65304 10427 ft 293 kts 235°
2026-04-26 13:15 47.70230 8.62612 10161 ft 286 kts 252°
2026-04-26 13:15 47.69646 8.59789 9688 ft 285 kts 253°
2026-04-26 13:16 47.69090 8.56963 9258 ft 284 kts 253°
2026-04-26 13:16 47.68542 8.54155 8846 ft 282 kts 253°
2026-04-26 13:16 47.68001 8.51366 8406 ft 281 kts 253°
2026-04-26 13:16 47.67462 8.48582 7959 ft 280 kts 253°
2026-04-26 13:17 47.66431 8.43257 7660 ft 256 kts 253°
2026-04-26 13:17 47.65947 8.40761 7443 ft 249 kts 253°
2026-04-26 13:18 47.64095 8.36698 6561 ft 240 kts 205°
2026-04-26 13:18 47.62484 8.36146 5774 ft 239 kts 177°
2026-04-26 13:18 47.59594 8.37993 4526 ft 225 kts 134°
2026-04-26 13:19 47.58475 8.39532 4191 ft 209 kts 133°
2026-04-26 13:19 47.57436 8.40959 3918 ft 204 kts 134°
2026-04-26 13:19 47.56422 8.42353 3644 ft 195 kts 132°
2026-04-26 13:19 47.55434 8.43709 3382 ft 192 kts 133°
2026-04-26 13:20 47.54481 8.45016 3155 ft 180 kts 134°
2026-04-26 13:20 47.53592 8.46234 2916 ft 169 kts 134°
2026-04-26 13:20 47.52758 8.47375 2703 ft 158 kts 132°
2026-04-26 13:20 47.51975 8.48448 2480 ft 149 kts 133°
2026-04-26 13:21 47.51225 8.49480 2255 ft 146 kts 132°
2026-04-26 13:21 47.50724 8.50167 2154 ft 145 kts 132°
2026-04-26 13:21 47.49756 8.51495 1852 ft 142 kts 131°
2026-04-26 13:21 47.49037 8.52477 1668 ft 140 kts 130°
2026-04-26 13:22 47.48328 8.53450 1480 ft 139 kts 133°
2026-04-26 13:22 47.47636 8.54399 1398 ft 127 kts 139°
2026-04-26 13:22 47.47132 8.55078 1397 ft 72 kts 137°
2026-04-26 13:22 47.46879 8.55422 1398 ft 33 kts 137°
2026-04-26 13:23 47.46729 8.55600 1402 ft 27 kts 150°
2026-04-26 13:23 47.46558 8.55691 1400 ft 23 kts 167°
2026-04-26 13:23 47.46428 8.55735 1398 ft 19 kts 167°
2026-04-26 13:23 47.46338 8.55819 1405 ft 14 kts 138°
2026-04-26 13:24 47.46268 8.55912 1402 ft 13 kts 137°
2026-04-26 13:24 47.46199 8.55995 1401 ft 12 kts 158°
2026-04-26 13:24 47.46116 8.55993 1400 ft 13 kts 187°
2026-04-26 13:24 47.46027 8.55978 1406 ft 12 kts 185°
2026-04-26 13:25 47.45950 8.55960 1402 ft 11 kts 197°
2026-04-26 13:25 47.45876 8.55921 1409 ft 12 kts 200°
2026-04-26 13:25 47.45841 8.55902 1400 ft 0 kts 200°
2026-04-26 13:27 47.45840 8.55901 1400 ft 2 kts 200°
2026-04-26 13:27 47.45790 8.55879 1400 ft 10 kts 189°
2026-04-26 13:27 47.45695 8.55864 1401 ft 16 kts 186°
2026-04-26 13:28 47.45584 8.55847 1400 ft 13 kts 186°
2026-04-26 13:28 47.45508 8.55861 1405 ft 10 kts 136°
2026-04-26 13:28 47.45458 8.55879 1402 ft 7 kts 185°
2026-04-26 13:28 47.45423 8.55873 1401 ft 1 kts 186°
2026-04-26 13:29 47.45422 8.55873 1401 ft 0 kts 186°